FW2101 Weather Reports


time (UTC)temp
F
wind
direction
speed
knots
gust
knots
rain 1hr
in
rain 24hr
in
rain mn
in
humidity
%
barometer
mb
20260906215059 70 2 2.6 7.8 0.00 0.00 0.00 62 1017.5
20260906214820 69 52 3.5 7.8 0.00 0.00 0.00 64 1017.6
20260906214058 69 118 2.6 7.8 0.00 0.00 0.00 63 1017.6
20260906213818 69 44 2.6 8.7 0.00 0.00 0.00 65 1017.7
20260906213059 69 351 4.3 9.6 0.00 0.00 0.00 66 1017.7
20260906212558 69 11 4.3 9.6 0.00 0.00 0.00 66 1017.7
20260906212059 69 355 3.5 10.4 0.00 0.00 0.00 64 1017.7
20260906211829 69 139 3.5 10.4 0.00 0.00 0.00 65 1017.6
20260906211059 69 48 4.3 8.7 0.00 0.00 0.00 65 1017.7
20260906210600 68 322 4.3 8.7 0.00 0.00 0.00 66 1017.7
20260906210059 68 40 5.2 10.4 0.00 0.00 0.00 67 1017.6
20260906205600 68 9 6.1 10.4 0.00 0.00 0.00 66 1017.6
20260906205059 68 4 6.1 10.4 0.00 0.00 0.00 67 1017.6
20260906204556 69 358 5.2 10.4 0.00 0.00 0.00 66 1017.5
20260906204056 69 32 4.3 8.7 0.00 0.00 0.00 66 1017.5
20260906203556 69 341 4.3 9.6 0.00 0.00 0.00 67 1017.5
20260906203056 69 143 4.3 9.6 0.00 0.00 0.00 66 1017.5
20260906202812 69 28 4.3 11.3 0.00 0.00 0.00 66 1017.3
20260906202056 69 17 4.3 11.3 0.00 0.00 0.00 66 1017.4
20260906201556 69 24 4.3 8.7 0.00 0.00 0.00 65 1017.4
20260906201056 69 37 4.3 8.7 0.00 0.00 0.00 65 1017.4
20260906200819 69 62 3.5 8.7 0.00 0.00 0.00 65 1017.4
20260906200057 69 1 3.5 9.6 0.00 0.00 0.00 65 1017.4
20260906195556 69 54 5.2 9.6 0.00 0.00 0.00 65 1017.4
20260906195055 69 118 5.2 11.3 0.00 0.00 0.00 65 1017.5
20260906195042 69 8 4.3 11.3 0.00 0.00 0.00 65 1017.5
20260906194055 69 11 4.3 10.4 0.00 0.00 0.00 65 1017.4
20260906193554 68 344 5.2 10.4 0.00 0.00 0.00 67 1017.4
20260906193054 68 15 5.2 9.6 0.00 0.00 0.00 66 1017.4
20260906192813 68 19 6.1 11.3 0.00 0.00 0.00 65 1017.4
20260906192055 68 328 5.2 11.3 0.00 0.00 0.00 65 1017.4
20260906191555 69 335 5.2 12.2 0.00 0.00 0.00 65 1017.4
20260906191055 69 23 5.2 12.2 0.00 0.00 0.00 66 1017.3
20260906190555 69 7 3.5 9.6 0.00 0.00 0.00 66 1017.4
20260906190056 69 23 4.3 9.6 0.00 0.00 0.00 66 1017.4
20260906185823 68 30 5.2 9.6 0.00 0.00 0.00 66 1017.4
20260906185055 69 7 4.3 9.6 0.00 0.00 0.00 66 1017.4
20260906184552 69 315 4.3 10.4 0.00 0.00 0.00 65 1017.4
20260906184052 69 29 3.5 10.4 0.00 0.00 0.00 65 1017.3
20260906183552 69 15 4.3 10.4 0.00 0.00 0.00 63 1017.4
20260906183052 69 341 3.5 10.4 0.00 0.00 0.00 62 1017.5
20260906182816 69 311 4.3 8.7 0.00 0.00 0.00 61 1017.5
20260906182318 68 76 6.1 11.3 0.00 0.00 0.00 63 1017.5
20260906181552 69 14 5.2 11.3 0.00 0.00 0.00 63 1017.4
20260906181052 69 9 4.3 8.7 0.00 0.00 0.00 62 1017.5
20260906180817 69 15 3.5 9.6 0.00 0.00 0.00 62 1017.4
20260906180050 68 133 4.3 9.6 0.00 0.00 0.00 63 1017.4
20260906175815 68 40 5.2 12.2 0.00 0.00 0.00 61 1017.5
20260906175047 68 0 5.2 12.2 0.00 0.00 0.00 63 1017.4
20260906174546 68 19 4.3 10.4 0.00 0.00 0.00 64 1017.5
20260906174046 68 109 3.5 10.4 0.00 0.00 0.00 64 1017.6
20260906173546 68 52 4.3 9.6 0.00 0.00 0.00 61 1017.5
20260906173047 68 56 5.2 9.6 0.00 0.00 0.00 63 1017.6
20260906172547 68 82 5.2 9.6 0.00 0.00 0.00 64 1017.6
20260906172047 69 18 4.3 11.3 0.00 0.00 0.00 64 1017.6
20260906171547 69 67 4.3 11.3 0.00 0.00 0.00 63 1017.6
20260906171047 68 55 5.2 12.2 0.00 0.00 0.00 63 1017.5
20260906170547 69 140 4.3 12.2 0.00 0.00 0.00 62 1017.5
20260906170047 70 3 3.5 11.3 0.00 0.00 0.00 64 1017.5
20260906165546 70 79 3.5 8.7 0.00 0.00 0.00 61 1017.4
20260906165309 70 35 3.5 8.7 0.00 0.00 0.00 60 1017.4
20260906164546 70 44 2.6 8.7 0.00 0.00 0.00 57 1017.4
20260906164307 70 41 3.5 10.4 0.00 0.00 0.00 58 1017.4
20260906164030 69 79 4.3 10.4 0.00 0.00 0.00 59 1017.4
20260906163046 69 35 4.3 10.4 0.00 0.00 0.00 59 1017.5
20260906162546 69 66 3.5 9.6 0.00 0.00 0.00 59 1017.5
20260906162046 69 36 3.5 10.4 0.00 0.00 0.00 60 1017.5
20260906161547 69 43 5.2 10.4 0.00 0.00 0.00 59 1017.5
20260906161047 69 12 5.2 10.4 0.00 0.00 0.00 59 1017.5
20260906160546 69 91 4.3 9.6 0.00 0.00 0.00 62 1017.5
20260906160047 69 93 4.3 9.6 0.00 0.00 0.00 62 1017.5
20260906160029 69 41 3.5 8.7 0.00 0.00 0.00 60 1017.5
20260906155043 69 320 3.5 8.7 0.00 0.00 0.00 61 1017.6
20260906154542 69 157 3.5 11.3 0.00 0.00 0.00 64 1017.6
20260906154043 68 213 4.3 11.3 0.00 0.00 0.00 66 1017.5
20260906153542 69 107 4.3 11.3 0.00 0.00 0.00 63 1017.5
20260906153043 69 113 4.3 8.7 0.00 0.00 0.00 63 1017.4
20260906152543 68 50 3.5 8.7 0.00 0.00 0.00 63 1017.5
20260906152043 68 89 3.5 8.7 0.00 0.00 0.00 66 1017.4
20260906151543 68 160 5.2 10.4 0.00 0.00 0.00 68 1017.5
20260906151041 69 112 5.2 11.3 0.00 0.00 0.00 69 1017.4
20260906150542 69 22 3.5 11.3 0.00 0.00 0.00 66 1017.4
20260906150038 68 215 3.5 8.7 0.00 0.00 0.00 65 1017.4
20260906145539 68 83 3.5 8.7 0.00 0.00 0.00 69 1017.3
20260906145038 68 51 3.5 7.8 0.00 0.00 0.00 71 1017.4
20260906144803 67 16 2.6 7.8 0.00 0.00 0.00 74 1017.5
20260906144300 68 93 2.6 7.8 0.00 0.00 0.00 71 1017.5
20260906143538 68 115 2.6 7.8 0.00 0.00 0.00 69 1017.4
20260906143038 68 143 2.6 7.0 0.00 0.00 0.00 70 1017.3
20260906142538 68 85 2.6 7.0 0.00 0.00 0.00 69 1017.3
20260906142039 67 26 2.6 7.0 0.00 0.00 0.00 70 1017.2
20260906141538 67 18 1.7 7.0 0.00 0.00 0.00 71 1017.2
20260906141038 67 175 2.6 7.0 0.00 0.00 0.00 72 1017.2
20260906140538 67 85 3.5 7.8 0.00 0.00 0.00 72 1017.1
20260906140032 67 75 4.3 8.7 0.00 0.00 0.00 72 1017.0
20260906135534 68 17 4.3 8.7 0.00 0.00 0.00 72 1017.0
20260906135032 68 119 3.5 9.6 0.00 0.00 0.00 71 1017.0
20260906134535 67 105 3.5 9.6 0.00 0.00 0.00 72 1016.9
20260906134033 66 321 3.5 7.0 0.00 0.00 0.00 77 1017.0
20260906133535 65 68 3.5 7.0 0.00 0.00 0.00 78 1016.9
20260906133033 65 104 2.6 6.1 0.00 0.00 0.00 81 1017.0
20260906132535 65 96 2.6 5.2 0.00 0.00 0.00 81 1017.0
20260906132033 65 36 2.6 5.2 0.00 0.00 0.00 82 1017.0
20260906131535 65 104 1.7 5.2 0.00 0.00 0.00 83 1016.9
20260906131033 65 99 1.7 4.3 0.00 0.00 0.00 85 1017.0
20260906130534 64 77 1.7 5.2 0.00 0.00 0.00 86 1017.1
20260906130032 64 123 1.7 7.0 0.00 0.00 0.00 86 1017.0
20260906125803 64 33 1.7 7.0 0.00 0.00 0.00 86 1017.0
20260906125031 64 82 1.7 7.0 0.00 0.00 0.00 86 1017.0
20260906124533 64 143 1.7 7.0 0.00 0.00 0.00 87 1017.0
20260906124031 64 137 1.7 7.0 0.00 0.00 0.00 88 1016.9
20260906123533 64 45 1.7 5.2 0.00 0.00 0.00 89 1016.9
20260906123030 63 124 1.7 5.2 0.00 0.00 0.00 89 1016.9
20260906122533 63 66 1.7 4.3 0.00 0.00 0.00 90 1016.8
20260906122032 63 102 1.7 4.3 0.00 0.00 0.00 91 1016.8
20260906121532 63 138 1.7 3.5 0.00 0.00 0.00 91 1016.8
20260906121031 63 100 0.9 3.5 0.00 0.00 0.00 92 1016.8
20260906121010 63 110 0.9 2.6 0.00 0.00 0.00 93 1016.7
20260906120032 63 148 0.9 3.5 0.00 0.00 0.00 93 1016.6
20260906115528 62 86 0.9 3.5 0.00 0.00 0.00 94 1016.6
20260906115249 62 358 0.9 3.5 0.00 0.00 0.00 94 1016.5
20260906114527 61 42 0.9 3.5 0.00 0.00 0.00 94 1016.5
20260906114025 61 39 0.9 2.6 0.00 0.00 0.00 94 1016.4
20260906113524 61 221 0.0 1.7 0.00 0.00 0.00 94 1016.4
20260906113021 61 59 0.0 1.7 0.00 0.00 0.00 94 1016.3
20260906112521 61 87 0.9 1.7 0.00 0.00 0.00 94 1016.3
20260906112021 60 0 0.0 1.7 0.00 0.00 0.00 94 1016.1
20260906111747 60 210 0.0 0.9 0.00 0.00 0.00 94 1016.1
20260906111021 60 0 0.0 1.7 0.00 0.00 0.00 94 1016.0
20260906110744 60 86 0.0 1.7 0.00 0.00 0.00 94 1016.0
20260906110245 60 271 0.0 0.9 0.00 0.00 0.00 94 1015.9
20260906105520 60 98 0.0 0.9 0.00 0.00 0.00 94 1015.9
20260906105020 60 308 0.0 0.9 0.00 0.00 0.00 93 1015.9
20260906104519 61 90 0.0 0.9 0.00 0.00 0.00 94 1015.8
20260906104019 61 267 0.9 1.7 0.00 0.00 0.00 94 1015.7
20260906103519 61 283 0.9 1.7 0.00 0.00 0.00 94 1015.7
20260906103019 60 302 0.9 1.7 0.00 0.00 0.00 94 1015.6
20260906102520 60 272 0.9 0.9 0.00 0.00 0.00 94 1015.6
20260906102020 60 329 0.0 0.9 0.00 0.00 0.00 94 1015.5
20260906101520 60 0 0.0 0.9 0.00 0.00 0.00 94 1015.5
20260906101020 60 0 0.0 0.9 0.00 0.00 0.00 94 1015.4
20260906100520 60 0 0.0 0.9 0.00 0.00 0.00 94 1015.4
20260906100239 60 0 0.0 0.9 0.00 0.00 0.00 93 1015.3
20260906095520 60 0 0.0 0.9 0.00 0.00 0.00 93 1015.3
20260906095020 60 0 0.0 0.9 0.00 0.00 0.00 93 1015.2
20260906094520 60 195 0.0 0.9 0.00 0.00 0.00 93 1015.2
20260906094020 60 89 0.0 1.7 0.00 0.00 0.00 93 1015.2
20260906093520 60 258 0.9 1.7 0.00 0.00 0.00 94 1015.1
20260906093017 60 353 0.9 1.7 0.00 0.00 0.00 93 1015.1
20260906092517 60 7 0.9 2.6 0.00 0.00 0.00 94 1015.0
20260906092017 59 326 0.9 2.6 0.00 0.00 0.00 94 1014.9
20260906091517 59 319 0.0 0.9 0.00 0.00 0.00 93 1014.8
20260906091506 59 0 0.0 0.9 0.00 0.00 0.00 93 1014.7
20260906090517 59 0 0.9 1.7 0.00 0.00 0.00 93 1014.6
20260906090017 59 0 0.9 1.7 0.00 0.00 0.00 93 1014.5
20260906085517 59 252 0.0 1.7 0.00 0.00 0.00 93 1014.4
20260906085239 59 58 0.0 0.9 0.00 0.00 0.00 93 1014.4
20260906084737 59 0 0.0 0.9 0.00 0.00 0.00 93 1014.4
20260906084017 59 0 0.0 0.9 0.00 0.00 0.00 93 1014.4
20260906083743 59 0 0.0 0.9 0.00 0.00 0.00 93 1014.4
20260906083018 60 209 0.0 0.9 0.00 0.00 0.00 93 1014.4
20260906082518 59 245 0.9 0.9 0.00 0.00 0.00 93 1014.3
20260906082019 59 0 0.0 0.9 0.00 0.00 0.00 93 1014.4
20260906081955 60 0 0.0 0.9 0.00 0.00 0.00 93 1014.4
20260906081015 60 280 0.0 0.9 0.00 0.00 0.00 93 1014.3
20260906080515 60 0 0.0 0.9 0.00 0.00 0.00 93 1014.3
20260906080015 60 331 0.0 0.9 0.00 0.00 0.00 93 1014.2
20260906075514 60 268 0.0 0.9 0.00 0.00 0.00 92 1014.2
20260906075232 60 267 0.0 0.9 0.00 0.00 0.00 93 1014.2
20260906074512 60 176 0.0 0.9 0.00 0.00 0.00 92 1014.2
20260906074013 60 270 0.0 0.9 0.00 0.00 0.00 92 1014.2
20260906073512 60 0 0.0 0.9 0.00 0.00 0.00 92 1014.1
20260906073011 61 283 0.0 0.9 0.00 0.00 0.00 92 1014.1
20260906072510 61 336 0.0 0.9 0.00 0.00 0.00 92 1014.1
20260906071736 61 231 0.0 1.7 0.00 0.00 0.00 92 1014.2
20260906071011 61 268 0.9 1.7 0.00 0.00 0.00 92 1014.1
20260906070512 61 358 0.9 1.7 0.00 0.00 0.00 92 1014.2
20260906070012 61 221 0.0 1.7 0.00 0.00 0.00 92 1014.2
20260906065511 62 18 0.0 1.7 0.00 0.00 0.00 92 1014.3
20260906065012 62 0 0.0 1.7 0.00 0.00 0.00 92 1014.3
20260906064508 62 23 0.0 1.7 0.00 0.00 0.00 92 1014.3
20260906064007 62 284 0.0 0.9 0.00 0.00 0.00 92 1014.3
20260906063508 62 0 0.0 0.9 0.00 0.00 0.00 92 1014.3
20260906063007 62 225 0.0 1.7 0.00 0.00 0.00 92 1014.2
20260906062505 62 230 0.0 1.7 0.00 0.00 0.00 92 1014.3
20260906062006 62 323 0.0 1.7 0.00 0.00 0.00 92 1014.3
20260906061507 62 272 0.0 0.9 0.00 0.00 0.00 92 1014.3
20260906061502 62 344 0.0 1.7 0.00 0.00 0.00 92 1014.3
20260906060507 62 326 0.0 1.7 0.00 0.00 0.00 91 1014.3
20260906060225 62 0 0.0 0.9 0.00 0.00 0.00 91 1014.3
20260906055506 62 0 0.0 0.9 0.00 0.00 0.00 91 1014.3
20260906055006 62 0 0.0 1.7 0.00 0.00 0.00 91 1014.3
20260906054726 62 218 0.0 1.7 0.00 0.00 0.00 91 1014.4
20260906054226 62 0 0.0 1.7 0.00 0.00 0.00 91 1014.4
20260906053502 62 0 0.0 1.7 0.00 0.00 0.00 91 1014.3
20260906053222 62 103 0.9 1.7 0.00 0.00 0.00 91 1014.5
20260906052501 62 230 0.9 1.7 0.00 0.00 0.00 91 1014.5
20260906052001 62 321 0.0 1.7 0.00 0.00 0.00 91 1014.5
20260906051500 62 241 0.0 1.7 0.00 0.00 0.00 91 1014.5
20260906051001 62 269 0.0 1.7 0.00 0.00 0.00 91 1014.4
20260906050502 62 0 0.0 1.7 0.00 0.00 0.00 91 1014.4
20260906050002 62 234 0.0 1.7 0.00 0.00 0.00 91 1014.4
20260906045458 62 326 0.0 1.7 0.00 0.00 0.00 90 1014.3
20260906045223 62 290 0.9 1.7 0.00 0.00 0.00 90 1014.2
20260906044458 62 224 0.0 1.7 0.00 0.00 0.00 90 1014.2
20260906044217 62 0 0.0 0.9 0.00 0.00 0.00 90 1014.2
20260906043716 63 0 0.0 0.9 0.00 0.00 0.00 89 1014.1
20260906042957 63 301 0.0 0.9 0.00 0.00 0.00 89 1014.1
20260906042458 63 0 0.0 1.7 0.00 0.00 0.00 89 1014.2
20260906041957 64 274 0.0 1.7 0.00 0.00 0.00 88 1014.1
20260906041457 64 242 0.0 1.7 0.00 0.00 0.00 88 1014.1
20260906040958 64 0 0.9 1.7 0.00 0.00 0.00 88 1014.2
20260906040723 64 261 0.9 1.7 0.00 0.00 0.00 87 1014.2
20260906035949 64 284 0.0 1.7 0.00 0.00 0.00 87 1014.1
20260906035448 64 303 0.0 0.9 0.00 0.00 0.00 86 1014.1
20260906034947 65 278 0.0 0.9 0.00 0.00 0.00 86 1014.2
20260906034448 65 0 0.0 0.9 0.00 0.00 0.00 85 1014.1
20260906033943 65 280 0.0 0.9 0.00 0.00 0.00 85 1014.1
20260906033706 65 0 0.9 2.6 0.00 0.00 0.00 84 1014.1
20260906032942 66 333 0.9 2.6 0.00 0.00 0.00 84 1014.0
20260906032442 66 333 1.7 2.6 0.00 0.00 0.00 84 1014.1
20260906031942 66 329 1.7 2.6 0.00 0.00 0.00 83 1014.1
20260906031442 66 323 0.9 2.6 0.00 0.00 0.00 83 1014.1
20260906030943 66 338 0.9 2.6 0.00 0.00 0.00 83 1014.0
20260906030438 66 331 0.9 1.7 0.00 0.00 0.00 83 1014.0
20260906025938 66 234 0.9 2.6 0.00 0.00 0.00 83 1014.0
20260906025438 66 321 1.7 2.6 0.00 0.00 0.00 83 1013.9
20260906024937 66 334 0.9 2.6 0.00 0.00 0.00 83 1013.7
20260906024437 66 303 0.9 2.6 0.00 0.00 0.00 83 1013.7
20260906023937 66 264 1.7 3.5 0.00 0.00 0.00 83 1013.7
20260906023437 66 313 1.7 3.5 0.00 0.00 0.00 83 1013.7
20260906023425 66 320 0.9 1.7 0.00 0.00 0.00 82 1013.7
20260906022924 66 266 1.7 2.6 0.00 0.00 0.00 82 1013.7
20260906021937 66 303 1.7 2.6 0.00 0.00 0.00 82 1013.7
20260906021437 66 347 1.7 3.5 0.00 0.00 0.00 82 1013.6
20260906020937 67 351 1.7 3.5 0.00 0.00 0.00 82 1013.6
20260906020651 67 288 1.7 3.5 0.00 0.00 0.00 81 1013.7
20260906020157 67 290 1.7 4.3 0.00 0.00 0.00 81 1013.7
20260906015433 67 341 1.7 4.3 0.00 0.00 0.00 81 1013.7
20260906015156 67 245 1.7 4.3 0.00 0.00 0.00 81 1013.7
20260906014432 67 338 1.7 4.3 0.00 0.00 0.00 81 1013.6
20260906013932 67 309 1.7 3.5 0.00 0.00 0.00 81 1013.5
20260906013431 67 262 0.9 3.5 0.00 0.00 0.00 80 1013.4
20260906012933 67 2 1.7 3.5 0.00 0.00 0.00 80 1013.4
20260906012432 67 350 1.7 3.5 0.00 0.00 0.00 80 1013.5
20260906011931 67 343 1.7 3.5 0.00 0.00 0.00 80 1013.4
20260906011433 67 340 0.9 3.5 0.00 0.00 0.00 80 1013.4
20260906010933 67 355 0.9 2.6 0.00 0.00 0.00 80 1013.5
20260906010433 67 355 0.9 2.6 0.00 0.00 0.00 79 1013.5
20260906010153 67 359 1.7 3.5 0.00 0.00 0.00 79 1013.5
20260906005429 67 355 1.7 3.5 0.00 0.00 0.00 79 1013.3
20260906004928 67 0 1.7 4.3 0.00 0.00 0.00 79 1013.4
20260906004428 67 0 1.7 5.2 0.00 0.00 0.00 79 1013.3
20260906003927 67 330 2.6 5.2 0.00 0.00 0.00 78 1013.2
20260906003657 68 15 1.7 5.2 0.00 0.00 0.00 78 1013.2
20260906002927 68 15 1.7 5.2 0.00 0.00 0.00 77 1013.2
20260906002427 68 34 1.7 4.3 0.00 0.00 0.00 77 1013.3
20260906001926 68 235 1.7 4.3 0.00 0.00 0.00 77 1013.3
20260906001426 68 357 1.7 4.3 0.00 0.00 0.00 77 1013.3
20260906001143 68 353 1.7 4.3 0.00 0.00 0.00 76 1013.3
20260906000426 68 332 1.7 4.3 0.00 0.00 0.00 76 1013.3
20260905235925 69 349 1.7 4.3 0.00 0.00 0.00 76 1013.3
20260905235425 69 344 1.7 4.3 0.00 0.00 0.00 76 1013.3
20260905234922 69 20 1.7 4.3 0.00 0.00 0.00 75 1013.2
20260905234422 69 358 1.7 4.3 0.00 0.00 0.00 75 1013.2
20260905233922 69 359 1.7 4.3 0.00 0.00 0.00 75 1013.3
20260905233421 69 342 2.6 5.2 0.00 0.00 0.00 75 1013.2
20260905232922 69 31 2.6 5.2 0.00 0.00 0.00 75 1013.2
20260905232902 69 34 1.7 5.2 0.00 0.00 0.00 74 1013.2
20260905232405 70 344 2.6 5.2 0.00 0.00 0.00 74 1013.2
20260905231423 70 15 2.6 7.0 0.00 0.00 0.00 73 1013.3
20260905230923 70 318 3.5 7.0 0.00 0.00 0.00 73 1013.2
20260905230423 71 2 2.6 6.1 0.00 0.00 0.00 73 1013.2
20260905225922 71 30 2.6 7.8 0.00 0.00 0.00 71 1013.2
20260905225422 71 30 2.6 7.8 0.00 0.00 0.00 71 1013.2
20260905224923 71 344 3.5 7.0 0.00 0.00 0.00 70 1013.3
20260905224423 72 63 2.6 9.6 0.00 0.00 0.00 69 1013.2
20260905223923 72 357 2.6 9.6 0.00 0.00 0.00 68 1013.2
20260905223423 72 57 3.5 7.8 0.00 0.00 0.00 68 1013.1
20260905222923 72 258 2.6 7.8 0.00 0.00 0.00 69 1013.1
20260905222424 72 108 3.5 7.8 0.00 0.00 0.00 69 1013.0
20260905221923 72 353 3.5 7.8 0.00 0.00 0.00 70 1013.0
20260905221655 72 359 4.3 8.7 0.00 0.00 0.00 70 1013.0
20260905220924 72 23 4.3 8.7 0.00 0.00 0.00 70 1013.0
20260905220419 72 320 4.3 8.7 0.00 0.00 0.00 69 1012.8
20260905220401 72 14 3.5 8.7 0.00 0.00 0.00 69 1012.9
20260905215420 72 25 3.5 8.7 0.00 0.00 0.00 70 1012.9